User: anonymous
Location: Kitchener
(43.2612°N, 80.5078°W)
Time: 16:45:56
(UTC+02:00)
Language:

Iridium 57 - Orbit

View from above orbital plane
View from above orbital plane
View from above satellite
View from above satellite

Ground track
Ground track

The orbit data is extracted from the following two-line orbital elements,

1 25273U 98019B   14210.44955561  .00000032  00000-0  44468-5 0  8370
2 25273 086.3978 007.7382 0002157 108.7536 251.3894 14.34217918855037
Epoch (UTC): 29 July 2014 10:47:21
Eccentricity: 0.0002157
inclination: 86.3978°
perigee height: 776 km
apogee height: 779 km
right ascension of ascending node: 7.7382°
argument of perigee: 108.7536°
revolutions per day: 14.34217918
mean anomaly at epoch: 251.3894°
orbit number at epoch: 85503

The dashed part of the orbit path shows where the satellite is in the earth's shadow,  

DLR